EHI
0 0 0 0 0 0 0 0 0 0 0 0 0 0 0 0 0 0 0 0 0 0 0 0 0 0 0 0 0 0 0 0 0 0 0 0 0 0
0 0 0 0 0 0 0 0 0 0 0 0 0 0 0 0 0 0 0 0 0 0 0 0 0 0 0 0 0 0 0 0 0 0 0 0 0 0
0 0 0 0 0 0 0 0 0 0 0 0 0 0 0 0 0 0 0 0 0 0 0 0 0 0 0 0 0 0 0 0 0 0 0 0 0 0
0 0 0 0 0 0 0 0 0 0 0 0 0 0 0 0 0 0 0 0 0 0 0 0 0 0 0 0 0 0 0 0 0 0 0 0 0 0
0 0 0 0 0 0 0 0 0 0 0 0 0 0 0 0 0 0 0 0 0 0 0 0 0 0 0 0 0 0 0 0 0 0 0 0 0 0
0 0 0 0 0 0 0 0 0 0 0 0 0 0 0 0 0 0 0 0 0 0 0 0 0 0 0 0 0 0 0 0 0 0 0 0 0 0
0 0 0 0 0 0 0 0 0 0 0 0 0 0 0 0 0 0 0 0 0 0 0 0 0 0 0 0 0 0 0 0 0 0 0 0 0 0
0 0 0 0 0 0 0 0 0 0 0 0 0 0 0 0 0 0 0 0 0 0 0 0 0 0 0 0 0 0 0 0 0 0 0 0 0 0
0 0 0 0 0 0 0 0 0 0 0 0 0 0 0 0 0 0 0 0 0 0 0 0 0 0 0 0 0 0 0 0 0 0 0 0 0 0
0 0 0 0 0 0 0 0 0 0 0 0 0 0 0 0 0 0 0 0 0 0 0 0 0 0 0 0 0 0 0 0 0 0 0 0 0 0
0 0 0 0 0 0 0 0 0 0 0 0 0 0 0 0 0 0 0 0 0 0 0 0 0 0 0 0 0 0 0 0 0 0 0 0 0 0
0 0 0 0 0 0 0 0 0 0 0 0 0 0 0 0 0 0 0 0 0 0 0 0 0 0 0 0 0 0 0 0 0 0 0 0 0 0
0 0 0 0 0 0 0 0 0 0 0 0 0 0 0 0 0 0 0 0 0 0 0 0 0 0 0 0 0 0 0 0 0 0 0 0 0 0
0 0 0 0 0 0 0 0 0 0 0 0 0 0 0 0 0 0 0 0 0 0 0 0 0 0 0 0 0 0 0 0 0 0 0 0 0 0
0 0 0 0 0 0 0 0 0 0 0 0 0 0 0 0 0 0 0 0 0 0 0 0 0 0 0 0 0 0 0 0 0 0 0 0 0 0
0 0 0 0 0 0 0 0 0 0 0 0 0 0 0 0 0 0 0 0 0 0 0 0 0 0 0 0 0 0 0 0 0 0 0 0 0 0
0 0 0 0 0 0 0 0 0 0 0 0 0 0 0 0 0 0 0 0 0 0 0 0 0 0 0 0 0 0 0 0 0 0 0 0 0 0
0 0 0 0 0 0 0 0 0 0 0 0 0 0 0 0 0 0 0 0 0 0 0 0 0 0 0 0 0 0 0 0 0 0 0 0 0 0
0 0 0 0 0 0 0 0 0 0 0 0 0 0 0 0 0 0 0 0 0 0 0 0 0 0 0 0 0 0 0 0 0 0 0 0 0 0
0 0 0 0 0 0 0 0 0 0 0 0 0 0 0 0 0 0 0 0 0 0 0 0 0 0 0 0 0 0 0 0 0 0 0 0 0 0
0 0 0 0 0 0 0 0 0 0 0 0 0 0 0 0 0 0 0 0 0 0 0 0 0 0 0 0 0 0 0 0 0 0 0 0 0 0
0 0 0 0 0 0 0 0 0 0 0 0 0 0 0 0 0 0 0 0 0 0 0 0 0 0 0 0 0 0 0 0 0 0 0 0 0 0
0 0 0 0 0 0 0 0 0 0 0 0 0 0 0 0 0 0 0 0 0 0 0 0 0 0 0 0 0 0 0 0 0 0 0 0 0 0
Wind_Speed
11 10 8 6 5 4 4 5 5 4 5 4 3 3 3 3 5 4 4 6 7 6 6 5 5 5 6 6 7 8 9 9 10 11 13 14 14 15
9 10 10 7 6 5 5 4 4 5 5 4 4 3 3 3 5 4 5 6 6 7 6 6 5 5 5 6 7 7 8 9 10 11 12 13 14 14
11 12 12 9 7 6 5 5 5 4 5 4 2 2 3 4 3 3 3 3 3 7 6 6 5 5 5 5 6 7 7 8 9 10 11 12 13 14
14 13 13 9 10 8 7 7 6 5 5 5 3 3 4 4 3 3 2 2 3 5 6 6 5 5 5 5 5 6 6 7 8 9 10 12 13 14
14 14 13 12 12 9 8 8 6 5 5 5 4 2 2 2 2 2 2 2 2 3 4 5 5 5 5 5 5 5 5 6 8 9 10 11 12 13
13 13 13 14 14 12 10 10 7 6 5 4 4 3 2 2 2 2 2 1 2 1 2 3 3 4 4 4 4 4 5 6 7 9 9 10 11 12
11 12 12 14 16 13 10 10 9 8 6 5 5 3 3 3 4 3 3 1 1 1 1 2 1 1 2 2 3 4 5 6 7 8 9 10 10 11
11 11 11 13 15 17 17 15 14 12 10 8 6 6 7 6 4 4 3 2 3 2 2 2 1 2 2 2 4 4 4 5 7 8 9 10 10 11
11 10 8 9 13 11 13 15 14 15 14 11 9 9 8 8 7 6 5 4 4 3 2 2 1 2 2 2 4 4 4 5 7 8 8 9 10 11
11 11 11 10 11 11 9 9 9 10 11 10 9 9 8 8 9 8 6 3 1 1 2 2 2 2 2 2 4 4 4 5 7 7 8 9 10 10
10 10 11 11 14 15 11 10 8 7 7 10 9 8 9 11 10 6 5 3 2 2 2 2 1 1 1 2 3 3 4 6 7 7 8 9 10 9
7 8 13 13 15 17 12 11 11 8 7 6 6 6 6 9 11 8 7 5 3 3 3 3 2 1 1 2 1 2 2 4 6 7 8 9 10 5
7 7 8 15 16 17 14 10 11 9 8 7 6 5 4 4 4 4 4 5 5 3 4 4 2 2 1 2 2 1 1 2 3 4 6 10 10 7
8 7 8 15 16 16 12 11 13 11 6 6 5 5 5 5 4 4 4 3 3 4 6 5 3 3 2 1 2 2 2 2 2 2 3 8 8 10
6 9 11 15 15 12 13 14 12 7 7 6 6 5 4 5 5 4 4 4 4 3 3 3 3 3 2 2 2 1 2 2 2 2 3 4 4 4
6 9 12 13 9 9 10 9 6 6 7 6 6 5 5 5 5 4 4 4 3 2 2 2 2 3 2 2 2 2 2 2 3 4 4 4 3 3
7 5 5 6 6 5 5 5 5 5 5 5 6 6 6 5 4 4 4 4 3 3 2 1 1 1 2 2 2 2 2 2 2 3 4 5 4 3
8 6 6 6 7 7 7 6 5 6 5 6 6 6 7 7 6 4 4 4 4 3 3 2 2 1 1 1 3 2 2 2 2 3 3 4 5 4
6 6 7 7 7 7 7 6 5 6 6 6 6 6 6 6 6 6 5 4 3 3 3 3 2 2 1 1 2 2 1 1 2 3 3 3 4 6
5 6 7 7 7 7 7 6 6 6 6 6 6 6 6 7 7 6 6 6 5 4 3 3 3 3 3 3 1 2 2 2 2 3 3 3 4 7
5 6 6 6 6 6 6 6 7 7 7 7 6 7 7 7 7 6 6 8 6 4 5 3 3 2 2 2 1 1 2 3 3 2 2 3 3 3
5 5 5 6 6 7 7 7 7 6 7 6 6 6 6 7 7 8 7 7 5 4 4 3 3 2 2 2 1 1 2 3 4 5 4 3 2 2
4 5 5 6 6 6 7 7 8 7 7 7 7 7 7 6 6 6 6 6 6 6 5 4 2 2 1 1 1 0 2 3 3 3 3 6 7 8
Wind_Direction
200 199 203 204 196 195 184 175 172 204 236 229 221 216 206 200 205 197 209 226 232 240 243 252 262 275 284 293 300 307 313 320 323 321 322 324 327 329
197 198 205 204 199 195 194 194 188 189 222 223 214 206 193 199 203 197 209 219 230 236 239 242 254 266 276 286 294 301 308 314 317 319 321 324 326 328
199 201 207 199 199 198 194 193 198 187 217 238 213 196 187 196 199 200 205 209 230 238 237 240 247 256 268 278 287 295 304 311 316 319 321 324 326 327
202 202 207 199 202 200 197 200 203 197 200 223 220 199 206 201 196 199 207 214 225 240 237 239 241 251 262 271 279 290 301 309 315 318 321 324 325 325
202 202 203 198 205 203 199 201 200 196 195 200 215 200 197 178 181 205 205 219 237 239 242 242 243 252 261 269 277 290 299 306 313 318 320 322 324 323
204 203 202 202 205 202 201 202 192 189 188 192 205 198 188 167 162 187 219 222 245 244 266 259 255 260 263 266 274 290 300 307 313 316 319 322 323 322
205 206 205 204 203 201 199 196 190 193 189 193 201 196 196 179 195 182 199 206 241 218 266 260 256 251 253 264 278 289 298 308 313 315 318 321 321 321
205 206 204 202 202 201 200 194 190 193 196 194 200 206 211 200 177 172 166 165 236 217 196 249 217 242 251 243 277 290 301 311 313 314 317 321 322 322
204 203 202 202 198 201 201 197 199 200 195 192 198 206 201 192 174 177 184 188 207 186 166 233 227 245 249 260 270 280 302 314 315 314 318 322 322 322
203 202 201 198 196 193 191 197 205 208 206 204 205 204 197 184 182 183 181 166 106 144 156 205 228 249 273 270 266 280 308 317 319 320 324 326 324 325
203 200 198 199 192 183 186 193 199 208 204 197 197 188 179 172 161 144 145 146 189 207 180 177 210 274 288 269 275 297 317 324 326 327 330 330 329 332
199 200 198 197 188 181 189 191 197 197 173 171 179 176 171 170 168 171 170 166 162 198 188 168 171 139 293 279 280 298 314 325 334 334 337 335 334 338
195 200 201 190 187 186 190 197 196 177 169 167 166 160 156 162 169 169 170 166 166 188 177 158 157 156 187 279 294 288 310 316 320 322 332 333 333 335
198 198 193 183 185 186 191 189 174 163 161 160 164 169 171 172 165 159 150 139 147 165 166 156 155 165 161 214 272 304 313 301 305 312 315 323 326 325
193 186 180 179 181 186 185 175 168 168 168 170 177 182 175 164 148 135 117 102 84 91 129 144 147 154 161 188 233 271 305 298 303 312 309 310 306 314
173 166 166 169 173 172 169 171 175 177 174 175 169 156 147 149 153 148 144 138 119 93 73 106 143 153 171 204 211 242 250 273 300 311 308 300 296 295
159 152 156 164 171 169 164 165 167 169 171 159 156 154 155 154 154 149 143 142 143 153 152 99 81 108 182 177 205 237 250 270 280 303 312 310 300 294
160 169 173 177 178 177 175 171 172 176 172 163 162 163 163 161 155 149 146 149 150 152 154 147 122 67 28 310 212 220 246 262 289 298 300 303 305 307
171 178 180 181 180 177 176 175 177 174 165 164 163 163 159 156 155 157 157 149 148 149 152 148 146 143 149 269 292 221 221 289 307 303 292 283 292 301
184 182 182 179 178 178 176 172 167 163 163 165 162 159 157 155 158 161 163 159 155 150 149 151 164 174 184 194 224 269 262 265 279 296 300 296 286 294
184 182 181 176 175 175 171 167 167 169 166 164 162 159 159 158 161 162 161 158 151 155 164 177 193 161 117 96 74 311 295 293 293 282 295 310 314 321
185 179 176 174 171 170 166 162 162 165 163 162 160 160 161 161 160 159 159 156 158 156 151 138 123 118 107 131 175 274 304 316 317 314 296 278 289 304
185 177 172 171 169 166 164 164 164 165 164 160 157 158 157 155 153 151 152 148 145 142 136 133 126 108 114 136 150 246 306 320 327 336 322 320 314 299